Effective Sunday, March 17, 2024, the National Weather Service National Data Buoy Center will discontinue its Dial-A-Buoy Interactive Voice Response system. For more information, see Service Change Notice 24-06 (PDF).

Station 46013 (LLNR 390) - BODEGA BAY - 48NM NW of San Francisco, CA Image indicating link to RSS feed of recent meteorological observations for station 46013


Conditions at 46013 as of
(10:00 am PST)
1800 GMT on 03/01/2024:
     

Click on the graph icon in the table below to see a time series plot of the last five days of that observation.

5-day plot - Wind Direction Wind Direction (WDIR):SSW ( 210 deg true )
5-day plot - Wind Speed Wind Speed (WSPD): 15.5 kts
5-day plot - Wind Gust Wind Gust (GST): 19.4 kts
5-day plot - Atmospheric Pressure Atmospheric Pressure (PRES):29.90 in
5-day plot - Pressure Tendency Pressure Tendency (PTDY):+0.00 in ( Steady )
5-day plot - Air Temperature Air Temperature (ATMP): 53.6 °F
5-day plot - Dew Point Dew Point (DEWP): 49.3 °F
5-day plot - Wind Chill Wind Chill (CHILL): 48.7 °F
5-day plot - Wind Speed at 10 Meters Wind Speed at 10 meters (WSPD10M): 17.5 kts
5-day plot - Wind Speed at 20 Meters Wind Speed at 20 meters (WSPD20M): 17.5 kts
5-day plot -  Wind Speed, Wind Gust and Atmospheric Pressure Combined plot of Wind Speed, Gust, and Air Pressure
Supplemental Measurements
Highest 1-minute Wind Speed
Time (PST)5-day plot - 1-Minute Wind Speed WSPD 5-day plot - 1-Minute Wind Direction WDIR
9:56 am 17.5 kts-
Previous observations
TIME
(PST)
5-day plot - Wind Direction
WDIR
 
5-day plot - Wind Speed
WSPD
kts
5-day plot - Wind Gust
GST
kts
5-day plot - Wave Height
WVHT
ft
5-day plot - Dominant Wave Period
DPD
sec
5-day plot - Average Wave Period
APD
sec
5-day plot - Mean Wave Direction
MWD
 
5-day plot - Atmospheric Pressure
PRES
in
5-day plot - Pressure Tendency
PTDY
in
5-day plot - Air Temperature
ATMP
°F
5-day plot - Water Temperature
WTMP
°F
5-day plot - Dew Point
DEWP
°F
5-day plot - Salinity
SAL
psu
5-day plot - Visibility
VIS
nmi
5-day plot - Tide (above MLLW)
TIDE
ft
2024-03-01 09:50 amSSW 15.5 23.3 12.5 128.4WNW29.90- 53.6- 50.5---
2024-03-01 09:40 amSSW 17.5 23.3----29.90- 53.6- 50.4---
2024-03-01 09:30 amSSW 17.5 21.4----29.90- 53.4- 49.3---
2024-03-01 09:20 amWSW 11.7 19.4 12.8 138.6WNW29.90- 52.0- 48.6---
2024-03-01 09:10 am SW 13.6 17.5 12.8-8.6WNW29.91- 53.8- 49.8---
2024-03-01 09:00 am SW 15.5 19.4----29.91+0.00 54.3- 49.8---
2024-03-01 08:50 am SW 15.5 19.4 11.5 117.8 NW29.91- 54.5- 49.6---
2024-03-01 08:40 am SW 15.5 19.4----29.91- 54.7- 49.3---
2024-03-01 08:30 am SW 17.5 21.4----29.91- 54.5- 48.9---
2024-03-01 08:20 am SW 17.5 21.4 11.8 127.8 NW29.91- 54.7- 48.9---
2024-03-01 08:10 am SW 17.5 21.4 11.8-7.8 NW29.90- 54.5- 48.7---
2024-03-01 08:00 am SW 17.5 21.4----29.90+0.00 54.5- 49.1---
2024-03-01 07:50 am SW 17.5 21.4 11.2 128.0WNW29.90- 54.5- 48.7---
2024-03-01 07:40 am SW 17.5 21.4----29.90- 54.7- 49.1---
2024-03-01 07:30 am SW 17.5 23.3----29.90- 54.5- 48.7---
2024-03-01 07:20 am SW 17.5 21.4 11.8 138.1WNW29.90- 54.3- 49.1---
2024-03-01 07:10 amSSW 15.5 19.4 11.8-8.1WNW29.90- 54.1- 50.2---
2024-03-01 07:00 am SW 15.5 21.4----29.89-0.01 53.8- 50.2---
2024-03-01 06:50 amSSW 17.5 23.3 11.5 137.7WNW29.90- 53.8- 50.7---
2024-03-01 06:40 am SW 17.5 21.4----29.90- 54.0- 50.2---
2024-03-01 06:30 amSSW 17.5 23.3----29.90- 53.8- 50.2---
2024-03-01 06:20 am SW 15.5 21.4 11.2 128.0WNW29.90- 53.6- 50.4---
2024-03-01 06:10 am SW 17.5 23.3 11.2-8.0WNW29.90- 53.2- 50.0---
2024-03-01 06:00 am SW 17.5 19.4----29.90-0.02 53.6- 50.0---
2024-03-01 05:50 am SW 15.5 21.4 12.1 128.2WNW29.90- 53.2- 49.8---
2024-03-01 05:40 am SW 17.5 21.4----29.90- 52.9- 50.0---
2024-03-01 05:30 amSSW 17.5 23.3----29.91- 53.1- 50.0---
2024-03-01 05:20 am SW 15.5 19.4 12.8 118.4WNW29.91- 53.1- 50.2---
2024-03-01 05:10 am SW 15.5 17.5 12.8-8.4WNW29.91- 52.5- 50.0---
2024-03-01 05:00 am SW 17.5 21.4----29.91-0.04 52.0- 49.8---
2024-03-01 04:50 am SW 13.6 21.4 13.5 138.6 NW29.91- 52.3- 50.4---
2024-03-01 04:40 amSSW 13.6 17.5----29.92- 53.4- 50.0---
2024-03-01 04:30 amSSW 11.7 17.5----29.91- 53.6- 49.3---
2024-03-01 04:20 amSSW 13.6 17.5 13.8 118.8WNW29.91- 53.6- 48.9---
2024-03-01 04:10 amSSW 13.6 17.5 13.8-8.8WNW29.91- 53.4- 48.6---
2024-03-01 04:00 amSSW 13.6 17.5----29.91-0.05 53.4- 48.9---
2024-03-01 03:50 amSSW 13.6 17.5 13.5 148.6WNW29.91- 53.2- 48.0---
2024-03-01 03:40 am SW 13.6 17.5----29.92- 53.2- 48.4---
2024-03-01 03:30 am SW 13.6 17.5----29.92- 53.1- 48.2---
2024-03-01 03:20 am SW 15.5 19.4 13.8 128.6 NW29.92- 52.9- 47.7---
2024-03-01 03:10 amSSW 15.5 19.4 13.8-8.6 NW29.92- 53.1- 49.5---
2024-03-01 03:00 amSSW 15.5 17.5----29.93-0.03 52.7- 49.3---
2024-03-01 02:50 am SW 17.5 27.2 12.8 128.5 NW29.93- 52.7- 49.1---
2024-03-01 02:40 am SW 13.6 17.5----29.93- 54.0- 48.7---
2024-03-01 02:30 amWSW 13.6 17.5----29.93- 53.8- 48.6---
2024-03-01 02:20 amWSW 13.6 19.4 13.5 128.5 NW29.94- 53.6- 48.4---
2024-03-01 02:10 amWSW 13.6 17.5 13.5-8.5 NW29.95- 53.4- 47.8---
2024-03-01 02:00 am SW 13.6 17.5----29.95-0.01 52.9- 48.9---
2024-03-01 01:50 amSSW 13.6 17.5 13.1 148.5 NW29.95- 52.5- 50.2---
2024-03-01 01:40 amSSW 13.6 15.5 13.1-8.5 NW29.95- 52.7- 50.0---
2024-03-01 01:30 amSSW 15.5 19.4----29.96- 52.9- 49.3---
2024-03-01 01:20 am SW 13.6 17.5 12.1 138.3WNW29.96- 52.7- 49.1---
2024-03-01 01:10 amSSW 13.6 17.5----29.96- 52.3- 50.4---
2024-03-01 01:00 amSSW 13.6 17.5----29.96+0.00 52.2- 50.0---
2024-03-01 12:50 am SW 15.5 19.4 13.1 118.4WNW29.96- 51.6- 49.3---
2024-03-01 12:40 am SW 15.5 23.3----29.96- 52.2- 48.6---
2024-03-01 12:30 am SW 13.6 19.4----29.96- 54.0- 49.5---
2024-03-01 12:20 am SW 15.5 19.4 11.5 158.2 NW29.95- 54.0- 49.1---
2024-03-01 12:10 am SW 15.5 19.4 11.5-8.2 NW29.96- 54.0- 48.6---
2024-03-01 12:00 am SW 17.5 21.4----29.96-0.01 54.0- 48.2---
2024-02-29 11:50 pm SW 15.5 19.4 11.2 117.9WNW29.95- 53.6- 48.9---
2024-02-29 11:40 pm SW 15.5 17.5----29.95- 53.4- 49.6---
2024-02-29 11:30 pm SW 15.5 21.4----29.96- 53.2- 49.3---
2024-02-29 11:20 pmWSW 17.5 21.4 10.5 117.6WNW29.96- 53.2- 49.5---
2024-02-29 11:10 pmWSW 15.5 23.3 10.5-7.6WNW29.96- 53.1- 49.8---
2024-02-29 11:00 pm W 17.5 23.3----29.96+0.00 52.7- 49.5---
2024-02-29 10:50 pmWSW 15.5 21.4 11.5 118.1WNW29.96- 54.9- 49.3---
2024-02-29 10:40 pm SW 13.6 17.5----29.96- 54.7- 48.9---
2024-02-29 10:30 pm SW 15.5 17.5----29.96- 54.7- 48.7---
2024-02-29 10:20 pm SW 15.5 17.5 11.2 118.2WNW29.96- 54.7- 48.6---
2024-02-29 10:10 pmWSW 15.5 17.5----29.96- 54.7- 48.4---
2024-02-29 10:00 pm SW 15.5 19.4----29.96+0.00 54.9- 48.7---
2024-02-29 09:50 pm SW 13.6 19.4 9.8 117.9WNW29.96- 54.9- 48.6---
2024-02-29 09:40 pm SW 13.6 17.5----29.96- 54.9- 48.7---
2024-02-29 09:30 pm SW 13.6 17.5----29.96- 54.9- 49.1---
2024-02-29 09:20 pm SW 11.7 15.5 11.2 118.4 NW29.96- 54.7- 49.3---
2024-02-29 09:10 pmWSW 11.7 15.5----29.96- 54.5- 48.9---
2024-02-29 09:00 pmWSW 13.6 17.5----29.96+0.00 54.7- 48.9---
2024-02-29 08:50 pmWSW 13.6 17.5 9.5 117.8WNW29.96- 54.7- 48.9---
2024-02-29 08:40 pmWSW 13.6 17.5----29.96- 54.7- 48.9---
2024-02-29 08:30 pmWSW 13.6 17.5----29.96- 54.9- 48.6---
2024-02-29 08:20 pmWSW 13.6 15.5 9.2 117.9WNW29.96- 54.9- 48.2---
2024-02-29 08:10 pmWSW 13.6 17.5 9.2-7.9WNW29.96- 54.9- 48.7---
2024-02-29 08:00 pm W 11.7 13.6----29.96+0.01 54.5- 49.5---
2024-02-29 07:50 pmWSW 11.7 17.5 10.2 118.4 NW29.96- 54.5- 49.5---
2024-02-29 07:40 pm SW 9.7 13.6----29.96- 54.0- 49.5---
2024-02-29 07:30 pm SW 11.7 15.5----29.96- 53.6- 48.2---
2024-02-29 07:20 pm SW 13.6 17.5 9.2 117.7WNW29.96- 53.2- 48.2---
2024-02-29 07:10 pmWSW 11.7 15.5 9.2-7.7WNW29.96- 53.8- 49.8---
2024-02-29 07:00 pm SW 9.7 11.7----29.96+0.02 53.2- 50.0---
2024-02-29 06:50 pm SW 7.8 11.7 8.9 117.6WNW29.95- 53.1- 50.0---
2024-02-29 06:40 pm SW 7.8 11.7----29.95- 52.7- 49.5---
2024-02-29 06:30 pm SW 7.8 11.7----29.95- 52.3- 49.1---
2024-02-29 06:20 pm SW 7.8 11.7 9.5 127.5 NW29.95- 52.2- 48.9---
2024-02-29 06:10 pm SW 7.8 11.7 9.5-7.5 NW29.95- 51.8- 48.9---
2024-02-29 06:00 pmWSW 7.8 11.7----29.96+0.00 51.3- 48.6---
2024-02-29 05:50 pmWSW 9.7 13.6 9.8 127.6WNW29.95- 50.9- 48.6---
2024-02-29 05:40 pm W 11.7 15.5 9.8-7.6WNW29.96- 51.1- 48.7---
2024-02-29 05:30 pm W 13.6 17.5----29.96- 51.4- 48.7---
2024-02-29 05:20 pm W 13.6 19.4 10.2 117.6 NW29.96- 52.2- 49.1---
2024-02-29 05:10 pmWSW 11.7 17.5 10.2-7.6 NW29.95- 53.4- 49.8---
2024-02-29 05:00 pmWSW 11.7 15.5----29.94+0.00 53.4- 49.6---
2024-02-29 04:50 pmWSW 11.7 15.5 10.2 117.4 NW29.94- 53.2- 49.8---
2024-02-29 04:40 pmWSW 11.7 15.5----29.94- 52.9- 50.2---
2024-02-29 04:30 pmWSW 11.7 13.6----29.94- 52.7- 50.4---
2024-02-29 04:20 pmWSW 11.7 15.5 11.2 117.5 NW29.94- 52.9- 50.7---
2024-02-29 04:10 pmWSW 11.7 15.5 11.2-7.5 NW29.95- 52.7- 50.4---
2024-02-29 04:00 pmWSW 11.7 15.5----29.95-0.01 52.7- 50.2---
2024-02-29 03:50 pmWSW 13.6 17.5 11.5 117.7 NW29.95- 52.7- 50.5---
2024-02-29 03:00 pm W 11.7 15.5 11.2-7.5 NW29.96+0.02 52.5- 50.9---
2024-02-29 02:50 pm W 11.7 15.5 10.8 117.3 NW29.95- 52.5- 51.1---
2024-02-29 02:40 pm W 11.7 13.6----29.95- 52.2- 50.9---
2024-02-29 02:30 pm W 13.6 17.5----29.95- 52.0- 50.9---
2024-02-29 02:20 pm W 15.5 19.4 11.2 117.1 NW29.95- 52.0- 50.9---
2024-02-29 02:10 pm W 15.5 19.4 11.2-7.1 NW29.95- 51.8- 50.7---
2024-02-29 02:00 pm W 15.5 21.4----29.95+0.00 51.6- 50.5---
2024-02-29 01:50 pm W 15.5 21.4 11.5 117.2 NW29.95- 51.6- 50.7---
2024-02-29 01:40 pm W 17.5 23.3 11.5-7.2 NW29.95- 51.4- 50.5---
2024-02-29 01:30 pmWNW 17.5 23.3----29.95- 51.6- 50.9---
2024-02-29 01:20 pmWNW 15.5 23.3 11.2 117.1 NW29.95- 52.2- 51.3---
2024-02-29 01:10 pmWNW 15.5 19.4----29.95- 52.2- 51.4---
2024-02-29 01:00 pmWNW 15.5 19.4----29.95+0.00 52.2- 51.4---
2024-02-29 12:50 pmWNW 13.6 19.4 10.2 116.7 NW29.95- 52.0- 51.3---
2024-02-29 12:40 pmWNW 15.5 21.4 10.2-6.7 NW29.96- 51.8- 51.1---
2024-02-29 12:30 pm W 15.5 23.3----29.96- 53.6- 52.5---
2024-02-29 12:20 pmSSW 19.4 23.3 9.2 96.3WNW29.95- 55.6- 54.7---
2024-02-29 12:10 pmSSW 21.4 29.1----29.94- 55.8- 54.5---
2024-02-29 12:00 pmSSW 21.4 29.1----29.95-0.02 55.8- 54.7---
2024-02-29 11:50 amSSW 19.4 27.2 9.5 106.3 NW29.94- 55.8- 54.7---
2024-02-29 11:40 amSSW 21.4 27.2----29.95- 55.6- 54.5---
2024-02-29 11:30 amSSW 23.3 29.1----29.95- 55.6- 54.3---
2024-02-29 11:20 amSSW 21.4 27.2 8.5 106.3 NW29.95- 55.6- 54.0---
2024-02-29 11:10 amSSW 19.4 27.2 8.5-6.3 NW29.95- 55.8- 54.3---
2024-02-29 11:00 amSSW 19.4 25.3----29.95+0.00 55.8- 54.3---
2024-02-29 10:50 amSSW 19.4 23.3 7.5 115.9WNW29.95- 55.4- 54.1---
2024-02-29 10:40 amSSW 19.4 23.3----29.95- 55.0- 54.0---
2024-02-29 10:30 amSSW 19.4 23.3----29.96- 54.9- 54.0---
2024-02-29 10:20 amSSW 19.4 27.2 7.5 105.9 NW29.95- 55.0- 54.1---
2024-02-29 10:10 amSSW 19.4 23.3----29.95- 55.0- 54.0---
2024-02-29 10:00 amSSW 19.4 23.3----29.95+0.02 54.9- 54.0---
2024-02-29 09:50 amSSW 19.4 23.3 7.5 65.9 SW29.95- 54.9- 54.1---

Detailed Wave Summary
for 46013 as of (9:40 am PST)
1740 GMT on 03/01/2024:

These wave data are displayed in rounded times.

     

Click on the graph icon in the table below to see a time series plot of the last five days of that observation.

5-day plot - Significant Wave Height Significant Wave Height (WVHT): 12.5 ft
5-day plot - Swell Height Swell Height (SwH): 10.8 ft
5-day plot - Swell Period Swell Period (SwP): 12.1 sec
5-day plot - Swell Direction Swell Direction (SwD):WNW
5-day plot - Wind Wave Height Wind Wave Height (WWH): 6.6 ft
5-day plot - Wind Wave Period Wind Wave Period (WWP): 8.3 sec
5-day plot - Wind Wave Direction Wind Wave Direction (WWD):WNW
5-day plot - Wave Steepness Wave Steepness (STEEPNESS): AVERAGE
5-day plot - Average Wave Period Average Wave Period (APD): 8.4 sec
Previous observations
TIME
(PST)
5-day plot - Wave Height
WVHT
ft
5-day plot - Swell Height
SwH
ft
5-day plot - Swell Period
SwP
sec
5-day plot - Swell Direction
SwD
 
5-day plot - Wind Wave Height
WWH
ft
5-day plot - Wind Wave Period
WWP
sec
5-day plot - Wind Wave Direction
WWD
 
5-day plot - Wave Steepness
STEEPNESS
 
5-day plot - Average Wave Period
APD
sec
2024-03-01 09:10 am 12.8 11.8 12.9WNW 4.6 5.9 W SWELL 8.6
2024-03-01 08:40 am 11.5 9.8 11.4 NW 5.9 6.7 W AVERAGE 7.8
2024-03-01 08:10 am 11.8 9.5 12.1 NW 6.9 7.7 WNW SWELL 7.8
2024-03-01 07:40 am 11.2 9.8 12.1WNW 5.6 7.1 W SWELL 8.0
2024-03-01 07:10 am 11.8 10.5 12.9WNW 5.9 6.2 W SWELL 8.1
2024-03-01 06:40 am 11.5 9.2 12.9WNW 6.9 8.3 W SWELL 7.7
2024-03-01 06:10 am 11.2 9.5 12.1WNW 5.6 7.1 W SWELL 8.0
2024-03-01 05:40 am 12.1 10.5 12.1WNW 5.9 7.7 W SWELL 8.2
2024-03-01 05:10 am 12.8 11.8 11.4WNW 5.2 6.2 W AVERAGE 8.4
2024-03-01 04:40 am 13.5 12.8 12.9 NW 4.3 5.9 W SWELL 8.6
2024-03-01 04:10 am 13.8 13.1 10.8WNW 4.6 6.7 WNW AVERAGE 8.8
2024-03-01 03:40 am 13.5 12.1 13.8WNW 4.9 6.2 W SWELL 8.6
2024-03-01 03:10 am 13.8 12.8 12.1 NW 5.2 6.2 WNW AVERAGE 8.6
2024-03-01 02:40 am 12.8 11.2 12.1 NW 6.2 6.2 W AVERAGE 8.5
2024-03-01 02:10 am 13.5 12.5 12.1 NW 5.2 6.7 WNW AVERAGE 8.5
2024-03-01 01:40 am 13.1 12.5 13.8 NW 4.9 5.3 WSW SWELL 8.5
2024-03-01 01:10 am 12.1 11.2 12.9WNW 4.6 6.7 W SWELL 8.3
2024-03-01 12:40 am 13.1 11.8 10.8WNW 5.9 7.1 W AVERAGE 8.4
2024-03-01 12:10 am 11.5 10.2 14.8 NW 5.2 5.9 WSW SWELL 8.2
2024-02-29 11:40 pm 11.2 10.2 10.8WNW 5.2 6.7 W AVERAGE 7.9
2024-02-29 11:10 pm 10.5 8.9 10.8WNW 5.6 5.6 WSW AVERAGE 7.6
2024-02-29 10:40 pm 11.5 10.2 10.8WNW 5.2 7.1 W AVERAGE 8.1
2024-02-29 10:10 pm 11.2 10.2 10.8WNW 4.9 5.6 WSW AVERAGE 8.2
2024-02-29 09:40 pm 9.8 8.9 10.8WNW 4.3 6.7 W AVERAGE 7.9
2024-02-29 09:10 pm 11.2 10.5 11.4 NW 3.6 5.9 SSW AVERAGE 8.4
2024-02-29 08:40 pm 9.5 8.9 11.4WNW 4.3 5.6 SSW SWELL 7.8
2024-02-29 08:10 pm 9.2 8.2 11.4WNW 3.6 6.2 WSW SWELL 7.9
2024-02-29 07:40 pm 10.2 10.2 10.8 NW 2.6 4.8 WSW AVERAGE 8.4
2024-02-29 07:10 pm 9.2 8.5 10.8WNW 3.3 5.6 SSW AVERAGE 7.7
2024-02-29 06:40 pm 8.9 8.9 11.4WNW 2.0 4.0 SW SWELL 7.6
2024-02-29 06:10 pm 9.5 9.2 12.1 NW 2.0 4.0 WSW SWELL 7.5
2024-02-29 05:40 pm 9.8 8.9 12.1WNW 3.6 5.6 SSW SWELL 7.6
2024-02-29 05:10 pm 10.2 8.9 10.8 NW 5.2 6.7 WSW AVERAGE 7.6
2024-02-29 04:40 pm 10.2 9.8 11.4 NW 3.3 5.3 SW AVERAGE 7.4
2024-02-29 04:10 pm 11.2 10.5 11.4 NW 3.9 5.0 SW AVERAGE 7.5
2024-02-29 03:40 pm 11.5 10.2 10.8 NW 5.2 5.9 SW AVERAGE 7.7
2024-02-29 03:10 pm 11.2 9.8 11.4 NW 4.9 6.2 WSW AVERAGE 7.5
2024-02-29 02:40 pm 10.8 10.2 10.8 NW 3.6 4.8 WSW AVERAGE 7.3
2024-02-29 02:10 pm 11.2 8.5 11.4 NW 6.9 6.2 WSW AVERAGE 7.1
2024-02-29 01:40 pm 11.5 8.2 10.8 NW 7.9 7.7 WNW AVERAGE 7.2
2024-02-29 01:10 pm 11.2 8.5 10.8 NW 6.9 7.1 W AVERAGE 7.1
2024-02-29 12:40 pm 10.2 7.2 10.8 NW 6.9 7.1 WNW AVERAGE 6.7
2024-02-29 12:10 pm 9.2 4.3 10.8WNW 8.2 9.1 WNW AVERAGE 6.3
2024-02-29 11:40 am 9.5 5.9 10.0 NW 7.2 5.9 SW AVERAGE 6.3
2024-02-29 11:10 am 8.5 4.6 10.0 NW 7.5 6.7 W AVERAGE 6.3
2024-02-29 10:40 am 7.5 4.3 11.4WNW 6.2 5.3 SW AVERAGE 5.9
2024-02-29 10:10 am 7.5 4.3 10.0 NW 6.2 8.3 WNW AVERAGE 5.9

Plot of wave energy versus frequency (and period)